Location: Terra Rouge Observatory
(46.0000°N, 62.7500°W)
Time: 10:15:40
(UTC-04:00)

Daily predictions for brighter satellites

Satellite Brightness Start Highest point End
(mag) Time Altitude Azimuth Time Altitude Azimuth Time Altitude Azimuth
Cosmos 1975 Rocket 3.3 16:58:01 10° S 17:02:23 54° E 17:06:46 10° NNE
SJ 16-02 3.2 17:00:17 10° SE 17:02:29 14° E 17:04:41 10° ENE
Atlas Centaur 2 4.4 16:59:28 10° SW 17:02:37 15° S 17:05:26 10° SSE
ALOS 3.8 17:00:26 10° E 17:03:00 15° ENE 17:05:34 10° NNE
Cosmos 1271 Rocket 3.2 17:02:38 10° N 17:06:12 37° ENE 17:09:46 10° SE
NOSS 2-3 (C) 4.0 17:01:35 10° SW 17:06:18 86° NW 17:11:57 10° NE
Okean 1 Rocket 4.0 17:03:42 10° NNW 17:08:05 53° W 17:12:26 10° S
OPS 6432 4.4 17:04:34 10° SSW 17:08:08 62° SE 17:11:11 10° NE
CENTAUR R/B 4.0 17:02:11 10° NNW 17:08:20 27° NNE 17:15:00 10° ENE
ERS-2 3.9 17:06:59 10° E 17:08:49 13° ENE 17:10:41 10° NNE
BREEZE-M DEB (TANK) 3.1 17:08:34 10° WNW 17:10:54 48° NNE 17:15:10 10° E
Okean 3 4.5 17:07:14 10° SSW 17:11:17 48° WNW 17:15:24 10° N
Cosmos 1943 Rocket 3.8 17:06:35 10° WSW 17:11:29 29° NW 17:16:26 10° N
BREEZE-M DEB (TANK) 2.3 17:09:50 10° W 17:11:58 57° N 17:15:40 10° ENE
Okean 1 3.2 17:09:51 10° S 17:13:49 78° E 17:17:48 10° NNE
Cosmos 2297 Rocket 2.5 17:09:43 10° NNW 17:15:06 42° NE 17:20:27 10° SE
Cosmos 1378 Rocket 4.4 17:15:26 10° SSW 17:19:46 53° WNW 17:24:09 10° N
Cosmos 1484 Rocket 2.8 17:18:43 10° SSE 17:22:41 68° ENE 17:26:43 10° N
Cosmos 1634 Rocket 4.3 17:18:12 10° SSW 17:24:23 72° W 17:30:40 10° N
Cosmos 1898 Rocket 4.1 17:21:25 10° SW 17:26:33 59° WNW 17:31:47 10° NNE
Ariane Rocket 2.9 17:22:07 10° SSE 17:27:10 75° ENE 17:32:14 10° N
Cosmos 1975 3.1 17:24:39 10° NNW 17:28:41 71° W 17:32:43 10° S
CZ-2C R/B 3.9 17:24:18 10° S 17:29:16 44° W 17:34:12 10° NNW
Cosmos 1666 2.6 17:25:34 10° N 17:29:18 63° ENE 17:33:01 10° SSE
Cosmos 1536 Rocket 4.2 17:26:44 10° SSE 17:30:39 33° E 17:34:33 10° NNE
Abrixas rocket 2.1 17:30:01 10° WSW 17:33:16 81° NNW 17:35:27 19° ENE
USA 238 DEB 3.8 17:26:11 10° NW 17:33:20 81° NE 17:40:32 10° SE
USA 238 3.8 17:26:18 10° NW 17:33:26 81° NE 17:40:38 10° SE
ISS -2.9 17:33:31 10° WNW 17:36:44 50° SW 17:39:54 10° SE
Meteor 2-4 Rocket 4.0 17:32:32 10° SSE 17:37:37 43° E 17:42:41 10° NNE
Cosmos 1937 Rocket 3.9 17:32:57 10° SSW 17:38:05 64° WNW 17:43:14 10° NNE
Cosmos 1125 Rocket 4.1 17:33:28 10° SSE 17:38:17 36° ESE 17:42:24 13° NE
Cosmos 1655 Rocket 4.2 17:33:39 10° N 17:40:03 81° W 17:46:27 10° S
SKYMED 2 4.4 17:37:47 13° NE 17:40:58 29° E 17:44:45 10° SSE
Meteor 1-13 Rocket 4.2 17:36:32 10° S 17:42:02 62° E 17:47:40 10° NNE
Cosmos 389 Rocket 3.2 17:38:54 10° NNW 17:42:20 56° W 17:45:43 10° S
Gblst 52 Del rocket 4.3 17:37:41 10° WNW 17:43:10 61° NNE 17:48:05 15° E
CSL-04 Debris 4.4 17:38:47 10° S 17:44:10 77° WSW 17:49:36 10° NNW
Cosmos 1048 Rocket 4.1 17:39:16 10° NNW 17:44:35 56° ENE 17:49:51 10° SE
Cosmos 2266 Rocket 4.0 17:39:02 10° N 17:45:01 56° ENE 17:51:03 10° SSE
CZ-4 R/B 1.3 17:46:24 10° SSE 17:50:17 89° W 17:54:16 10° NNW
Cosmos 2369 4.0 17:45:21 10° S 17:50:44 47° ESE 17:54:56 17° NE
Cosmos 2278 4.0 17:46:24 10° S 17:51:46 46° ESE 17:55:49 17° NE
Cosmos 2263 Rocket 4.0 17:50:26 10° NNE 17:51:56 12° NNE 17:51:56 12° NNE
BREEZE-M DEB (TANK) 3.7 17:53:47 10° W 17:56:25 41° SSW 18:03:20 10° SE
NOAA 12 4.3 17:54:22 10° SE 17:59:22 46° ENE 18:04:22 10° N
Cosmos 372 Rocket 4.1 17:54:42 10° S 17:59:44 52° ESE 18:03:18 19° NE
FENGYUN 3A 3.8 17:56:51 10° SE 18:02:00 49° ENE 18:07:10 10° N
NOSS 3-2 (A) 3.9 17:55:23 10° NW 18:02:49 76° NE 18:11:00 10° SE
Meteor 1-28 Rocket 3.4 18:00:22 10° N 18:04:06 70° WNW 18:07:51 10° SSW
DELTA 2 R/B (1) 4.4 17:59:16 10° WSW 18:04:31 44° S 18:08:17 18° ESE
Cosmos 1455 Rocket 3.7 18:00:46 10° NNW 18:05:08 57° W 18:09:25 10° S
METEOR-M 4.0 18:00:32 10° SSE 18:05:52 83° ENE 18:11:15 10° NNW
Meteor 1-19 Rocket 4.4 18:01:02 10° SSW 18:06:43 78° WNW 18:12:33 10° N
MINOTAUR IV R/B 4.4 18:03:44 10° NNW 18:08:16 77° ENE 18:12:44 10° SSE
Okean 2 4.2 18:05:57 10° SSE 18:09:05 30° ESE 18:09:05 30° ESE
NOSS 3-2 (C) 3.9 18:02:21 10° NW 18:09:44 68° NE 18:17:51 10° SE
EO 1 Del DPAF 3.5 18:09:50 38° ENE 18:10:40 44° E 18:14:20 10° S
Cosmos 1697 Rocket 3.1 18:07:04 10° S 18:12:19 41° ESE 18:14:25 30° ENE
CZ-2C R/B 3.8 18:10:09 10° NNE 18:14:51 80° WNW 18:19:35 10° SSW
YAOGAN 1 2.9 18:11:49 10° S 18:16:07 69° WSW 18:20:27 10° NNW
ATLAS 2AS CENTAUR R/B 3.3 18:10:32 10° SW 18:18:22 68° NW 18:24:55 17° NNE
USA 116 3.6 18:16:51 21° N 18:18:47 59° WNW 18:21:50 10° SSW
ATLAS 3B R/B 3.2 18:12:27 10° NW 18:18:58 58° WSW 18:25:18 10° SSE
STPSAT 2 (USA 217) 4.5 18:14:37 10° NNW 18:19:10 71° ENE 18:23:42 10° SSE
MONITOR-E 4.0 18:16:10 10° SSE 18:19:12 86° ENE 18:22:17 10° NNW
Cosmos 1515 4.0 18:16:11 10° SSE 18:19:26 44° ESE 18:19:26 44° ESE
Cosmos 2082 3.9 18:14:14 10° NNW 18:19:51 72° WSW 18:25:26 10° SSE
MTI 3.6 18:19:33 54° NNE 18:20:13 84° ESE 18:23:28 10° SSW
NOSS 5 (C) 4.2 18:22:39 10° SW 18:26:22 86° SE 18:26:32 79° ENE
COSMO-SKYMED 1 2.5 18:26:23 22° NNE 18:29:11 90° WNW 18:33:31 10° SSW
FengYun 1-2 T 4.4 18:24:24 10° SE 18:29:45 47° ENE 18:35:09 10° N
Landsat 4 4.0 18:29:20 25° N 18:31:26 67° WNW 18:35:12 10° SSW
Cosmos 2227 Rocket 3.3 18:26:58 10° NW 18:32:21 46° WSW 18:37:42 10° S
MOS 1 4.5 18:27:41 10° S 18:33:21 75° WSW 18:39:04 10° NNW
DMSP B5D1-3 4.4 18:34:45 36° NNE 18:36:48 64° ESE 18:41:52 10° S
NOSS 3-4 (A) 3.6 18:33:29 10° SSW 18:39:31 55° ESE 18:41:06 44° ENE
NOSS 3-4 (C) 3.6 18:33:35 10° SSW 18:39:37 55° ESE 18:41:10 44° ENE
ALOS 2.4 18:35:11 10° S 18:39:50 76° WSW 18:44:32 10° NNW
SJ 16-02 1.7 18:36:09 10° SSW 18:40:30 63° WNW 18:42:24 32° N
Cosmos 1553 Rocket 4.4 18:35:53 10° SSE 18:41:20 41° E 18:41:20 41° E
ERS-2 2.9 18:38:29 10° S 18:42:04 53° WSW 18:45:41 10° NNW
Meteor 1-23 Rocket 4.3 18:40:28 10° SSW 18:46:13 77° WNW 18:51:28 12° N
Meteor 2-11 Rocket 4.3 18:42:19 10° S 18:48:28 80° E 18:53:34 16° NNE
SPOT 3 Rocket 3.9 18:45:44 10° S 18:50:51 63° WSW 18:56:01 10° NNW
Cosmos 1980 Rocket 2.4 18:47:19 10° S 18:52:12 49° SE 18:52:12 49° SE
Okean 1-7 Rocket 4.3 18:51:07 10° S 18:54:04 42° S 18:54:04 42° S
Cosmos 2297 Rocket 3.9 18:54:01 10° NW 18:59:01 33° WSW 19:04:00 10° SSW
CENTAUR R/B 3.0 18:52:52 10° NW 19:00:35 64° NE 19:02:54 48° ESE
Cosmos 1241 Rocket 4.3 18:57:30 10° SSW 19:03:53 87° ESE 19:05:10 60° NE
Cosmos 1025 Rocket 3.4 19:01:46 10° SSW 19:05:43 61° WSW 19:05:43 61° WSW
Cosmos 2251 Rocket 4.1 19:01:23 10° NNW 19:05:04 44° N 19:05:04 44° N
Cosmos 1656 4.4 19:07:15 10° SW 19:12:38 49° WNW 19:14:33 35° N
DNEPR-1 R/B 4.1 19:08:53 10° NW 19:13:57 83° SW 19:14:06 82° SSW
Cosmos 2227 4.4 19:10:07 10° NNW 19:14:48 58° N 19:14:48 58° N
Cosmos 494 Rocket 4.3 19:12:19 10° NNW 19:17:34 66° WSW 19:18:27 56° SSW
Cosmos 2263 Rocket 4.2 19:32:19 10° NNW 19:33:38 17° NNW 19:33:38 17° NNW
Cosmos 1697 Rocket 4.0 19:51:12 10° WSW 19:56:12 35° WNW 19:56:12 35° WNW
ATLAS 2AS CENTAUR R/B 4.4 20:04:10 10° W 20:10:57 28° NNW 20:12:22 27° N
Cosmos 1980 Rocket 4.5 20:32:03 10° WSW 20:34:02 19° W 20:34:02 19° W
CENTAUR R/B 4.2 20:43:55 10° NW 20:50:09 38° W 20:50:09 38° W
